[[{"header":{"parameterUnit":"m.s-1","parameterCategory":1,"la1":30.2991,"la2":30.254,"lo1":-89.0895,"lo2":-89.0444,"dy":0.0017,"dx":0.0017,"nx":28,"ny":28,"refTime":"2024-09-29T09:00:00:Z","depth":0,"parameterNumber":2,"parameterNumberName":"U-component_of_WINDS"},"data":[0,0,0,0,0,0,0,0,0,0,0,0,0,0,0,0,0,0,0,0,0,0,0,0,0,0,0,0,0,0,0,0,0,0,0,0,0,0,0,0,0,0,0,0,0,0,0,0,0,0,0,0,0,0,0,0,0,0,0.8885,0.8886,0,0.891,0.891,0.891,0.8872,0.887,0.8869,0.8868,0.8895,0.8897,0.8899,0,0,0,0,0,0,0,0,0,0,0,0,0,0.8809,0.8811,0.8885,0.8886,0.8886,0.891,0.891,0.891,0.8872,0.887,0.8869,0.8867,0.8894,0.8896,0.8899,0,0,0,0,0,0,0,0,0,0,0,0,0,0.8839,0.8811,0.8885,0.887,0.8868,0.891,0.891,0.891,0.8872,0.887,0.8868,0.8866,0.8893,0.8896,0.8899,0.8957,0,0,0.8908,0.8909,0,0,0,0,0,0,0,0,0.8837,0.8842,0.8872,0.8871,0.887,0.8886,0.8893,0.8926,0.8873,0.8871,0.8868,0.8865,0.8893,0.8896,0.8905,0.8958,0.896,0.8908,0.891,0.8911,0.8912,0,0,0,0,0,0,0,0.8835,0.884,0.8895,0.8872,0.8871,0.8863,0.8865,0.8899,0.8893,0.8871,0.8868,0.8871,0.8892,0.8902,0.8906,0.896,0.8908,0.8911,0.8913,0.8914,0.9066,0.9068,0,0,0,0,0,0,0.8835,0.8839,0.8894,0.8896,0.8848,0.8866,0.8868,0.8882,0.8893,0.8892,0.8873,0.887,0.8898,0.8902,0.8906,0.8978,0.8911,0.8914,0.8916,0.9064,0.9066,0.9069,0,0,0,0,0,0,0.8833,0.884,0.8893,0.8867,0.8873,0.8869,0.8886,0.8884,0.8894,0.8894,0.8893,0.8884,0.8897,0.8902,0.8946,0.8978,0.8915,0.8918,0.9061,0.9065,0.9068,0.912,0,0,0,0,0,0,0.8831,0.884,0.8861,0.8867,0.8874,0.8931,0.8888,0.8886,0.8899,0.8894,0.8904,0.8904,0.8896,0.8941,0.8948,0.8981,0.892,0.9058,0.9063,0.9067,0.9115,0.9124,0.9132,0,0,0,0,0,0.8829,0.8874,0.8862,0.8869,0.89,0.8933,0.8937,0.8926,0.8902,0.8924,0.8924,0.8904,0.8973,0.8946,0.8954,0.8988,0.9056,0.9061,0.9066,0.9111,0.9123,0.9132,0,0,0,0,0,0,0.8871,0.8875,0.8861,0.891,0.8922,0.8926,0.8954,0.8938,0.8957,0.8952,0.8938,0.8941,0.8988,0.8992,0.8962,0.9046,0.9011,0.9018,0.9042,0.9053,0.9062,0.9061,0.8923,0,0,0,0,0,0.8886,0.8912,0.8913,0.8956,0.8963,0.8957,0.8971,0.8962,0.8973,0.8978,0.8982,0.8995,0.902,0.9036,0.9059,0.9115,0.9118,0.9142,0.9151,0.9158,0.9165,0.9199,0.921,0.9086,0.9086,0.9086,0,0,0.8918,0.8923,0.894,0.8965,0.8973,0.9001,0.8962,0.8992,0.9014,0.8983,0.9025,0.9028,0.9042,0.9093,0.9115,0.9097,0.92,0.9165,0.917,0.9173,0.9205,0.9217,0.9227,0.9089,0.9089,0.9088,0,0,0.899,0.8995,0.9033,0.9042,0.9055,0.9051,0.906,0.9068,0.9069,0.9111,0.9089,0.9115,0.9157,0.9169,0.918,0.9259,0.9243,0.9267,0.9313,0.9346,0.9356,0.9365,0.9396,0.9407,0.9273,0.9274,0.9274,0,0.9028,0.9069,0.9055,0.9088,0.9101,0.9074,0.9114,0.9123,0.9143,0.9153,0.9133,0.9188,0.9194,0.9249,0.9269,0.9278,0.929,0.9267,0.9355,0.9364,0.9372,0.9402,0.9413,0.9277,0.9276,0.9276,0.9276,0,0.9116,0.9145,0.9174,0.9194,0.921,0.9246,0.924,0.9258,0.9247,0.9247,0.9291,0.9299,0.9324,0.9336,0.9325,0.9391,0.938,0.9357,0.9322,0.9387,0.9415,0.9426,0.9281,0.928,0.9279,0.9278,0,0,0.9217,0.9229,0.9241,0.9251,0.9263,0.9286,0.9322,0.9346,0.9364,0.9378,0.941,0.9448,0.9428,0.9441,0.9432,0.9461,0.9527,0.9435,0.9436,0.9455,0.9603,0.9621,0.9635,0.9515,0.9517,0.9519,0.9603,0,0.9291,0.9352,0.9342,0.9402,0.943,0.9406,0.9438,0.945,0.9451,0.9476,0.9477,0.9505,0.9475,0.9484,0.951,0.9513,0.9557,0.9507,0.9547,0.9549,0.9547,0.9649,0.9667,0.9746,0.9613,0.9615,0.9616,0,0.9386,0.9405,0.9468,0.9479,0.949,0.9519,0.9542,0.9565,0.958,0.9579,0.9594,0.9581,0.9619,0.9581,0.9635,0.9602,0.9617,0.9622,0.9624,0.963,0.9588,0.9659,0.9771,0.9784,0.9633,0.9631,0.963,0,0.9457,0.9498,0.9542,0.955,0.9563,0.9585,0.9591,0.9603,0.962,0.964,0.9651,0.9676,0.969,0.9711,0.9705,0.9678,0.9762,0.9723,0.9764,0.9765,0.9784,0.9784,0.9903,0.979,0.979,0.979,0.979,0,0.9542,0.9583,0.9574,0.9601,0.9647,0.9635,0.9681,0.9684,0.9696,0.9725,0.9705,0.9733,0.9723,0.9751,0.9747,0.9795,0.98,0.9802,0.9801,0.9806,0.9806,0.9817,0.9813,0.9793,0.9792,0.9792,0.9791,0,0.9629,0.9625,0.9672,0.968,0.9684,0.9717,0.9725,0.9752,0.9752,0.9789,0.9797,0.9797,0.9829,0.9825,0.9861,0.9858,0.9918,0.9909,0.9914,0.9913,0.9955,0.9953,1.0088,1.0107,0.998,0.9981,0.9982,0,0.9685,0.9716,0.9729,0.9747,0.9755,0.9784,0.9801,0.9791,0.981,0.983,0.9855,0.9885,0.9909,0.9963,0.9967,0.9995,0.9988,1.0034,0.9992,0.9997,0.9993,0.9992,0.9997,1.0043,1.0044,1.0045,1.0046,0,0.9787,0.9784,0.9808,0.9833,0.9854,0.9873,0.989,0.9907,0.9898,0.9921,0.9954,0.9973,1.001,1.0042,1.0069,1.0077,1.0062,1.0059,1.0071,1.0077,1.008,1.0082,0.9939,1.0056,1.0055,1.0055,1.0054,1.0054,0.9862,0.989,0.9904,0.9933,0.9945,0.9962,0.9988,0.9991,1.0018,1.0048,1.004,1.0079,1.0095,1.013,1.0141,1.0172,1.0156,1.0172,1.0176,1.0181,1.0188,1.0072,1.0176,1.0176,1.0176,1.0176,1.0175,0,0.9965,0.9973,1.0,1.0025,1.0049,1.0031,1.005,1.0071,1.0105,1.0121,1.0145,1.0185,1.0216,1.0223,1.0253,1.0277,1.0271,1.0286,1.0285,1.0288,1.0199,1.0187,1.029,1.029,1.029,1.029,1.029,1.029,1.0022,1.0069,1.0067,1.0121,1.0128,1.0165,1.0178,1.0195,1.0208,1.0253,1.0278,1.0282,1.0296,1.0327,1.0356,1.0358,1.0371,1.0389,1.0389,1.0305,1.0294,1.0283,1.0272,1.0392,1.0392,1.0476,1.0476,1.0477]},{"header":{"parameterUnit":"m.s-1","parameterCategory":1,"la1":30.2991,"la2":30.254,"lo1":-89.0895,"lo2":-89.0444,"dy":0.0017,"dx":0.0017,"nx":28,"ny":28,"refTime":"2024-09-29T09:00:00:Z","depth":0,"parameterNumber":3,"parameterNumberName":"V-component_of_WINDS"},"data":[0,0,0,0,0,0,0,0,0,0,0,0,0,0,0,0,0,0,0,0,0,0,0,0,0,0,0,0,0,0,0,0,0,0,0,0,0,0,0,0,0,0,0,0,0,0,0,0,0,0,0,0,0,0,0,0,0,0,-2.3385,-2.3385,0,-2.3425,-2.3426,-2.3426,-2.3426,-2.3426,-2.3425,-2.3425,-2.3463,-2.3465,-2.3466,0,0,0,0,0,0,0,0,0,0,0,0,0,-2.3303,-2.3304,-2.3385,-2.3385,-2.3386,-2.3425,-2.3426,-2.3426,-2.3426,-2.3426,-2.3425,-2.3424,-2.3463,-2.3465,-2.3466,0,0,0,0,0,0,0,0,0,0,0,0,0,-2.334,-2.3305,-2.3384,-2.339,-2.3391,-2.3425,-2.3426,-2.3426,-2.3426,-2.3426,-2.3425,-2.3424,-2.3462,-2.3464,-2.3467,-2.3496,0,0,-2.3474,-2.3475,0,0,0,0,0,0,0,0,-2.3338,-2.3343,-2.3389,-2.339,-2.3391,-2.342,-2.3411,-2.345,-2.3427,-2.3413,-2.3425,-2.3424,-2.3449,-2.3453,-2.3462,-2.3498,-2.35,-2.3474,-2.3475,-2.3476,-2.3477,0,0,0,0,0,0,0,-2.3336,-2.3342,-2.3401,-2.339,-2.3391,-2.339,-2.3394,-2.3418,-2.3435,-2.3414,-2.3414,-2.3419,-2.345,-2.346,-2.3463,-2.35,-2.3474,-2.3476,-2.3477,-2.3478,-2.356,-2.3561,0,0,0,0,0,0,-2.3332,-2.3339,-2.3399,-2.3402,-2.3362,-2.3392,-2.3397,-2.3411,-2.3435,-2.3438,-2.342,-2.3419,-2.3456,-2.346,-2.3464,-2.3499,-2.3476,-2.3478,-2.3479,-2.3559,-2.356,-2.3561,0,0,0,0,0,0,-2.3331,-2.3338,-2.3398,-2.3371,-2.3378,-2.3394,-2.341,-2.3413,-2.3423,-2.3439,-2.3442,-2.3427,-2.3456,-2.3461,-2.3488,-2.35,-2.3479,-2.3481,-2.3558,-2.356,-2.3561,-2.3569,0,0,0,0,0,0,-2.3328,-2.3337,-2.335,-2.3371,-2.338,-2.3422,-2.3411,-2.3414,-2.3427,-2.3426,-2.3447,-2.3449,-2.3455,-2.3484,-2.349,-2.3503,-2.3483,-2.3557,-2.3559,-2.356,-2.3568,-2.357,-2.3572,0,0,0,0,0,-2.3325,-2.335,-2.335,-2.3357,-2.3396,-2.3423,-2.3428,-2.3435,-2.3428,-2.344,-2.345,-2.3449,-2.3498,-2.3487,-2.3494,-2.3507,-2.3557,-2.3559,-2.356,-2.3566,-2.357,-2.3572,0,0,0,0,0,0,-2.3329,-2.3353,-2.3353,-2.3386,-2.3402,-2.3423,-2.3438,-2.3439,-2.3457,-2.3455,-2.3463,-2.3467,-2.3494,-2.3503,-2.3491,-2.3536,-2.3526,-2.3529,-2.3529,-2.3532,-2.3534,-2.3531,-2.3485,0,0,0,0,0,-2.3333,-2.3354,-2.3374,-2.3401,-2.3409,-2.3422,-2.3434,-2.3439,-2.3455,-2.3462,-2.3474,-2.349,-2.3509,-2.3521,-2.3539,-2.3569,-2.3572,-2.3581,-2.3584,-2.3586,-2.3588,-2.3603,-2.3606,-2.3567,-2.3567,-2.3567,0,0,-2.3343,-2.3359,-2.3371,-2.3402,-2.3415,-2.3435,-2.3428,-2.345,-2.3464,-2.3465,-2.3491,-2.3501,-2.3518,-2.3546,-2.3559,-2.3555,-2.36,-2.3588,-2.359,-2.3591,-2.3605,-2.3608,-2.3612,-2.3569,-2.3568,-2.3568,0,0,-2.337,-2.3385,-2.3408,-2.3422,-2.3442,-2.345,-2.3456,-2.3476,-2.3482,-2.3509,-2.3509,-2.3526,-2.3559,-2.3571,-2.3582,-2.3612,-2.3611,-2.3618,-2.363,-2.3644,-2.3647,-2.365,-2.3659,-2.3663,-2.362,-2.362,-2.362,0,-2.3379,-2.3411,-2.342,-2.3442,-2.3454,-2.3456,-2.3479,-2.3491,-2.3516,-2.3524,-2.3519,-2.3559,-2.3571,-2.3601,-2.3608,-2.3617,-2.3622,-2.3615,-2.3647,-2.3649,-2.3652,-2.3661,-2.3665,-2.3621,-2.3621,-2.3621,-2.3621,0,-2.342,-2.3442,-2.3458,-2.3482,-2.3496,-2.3518,-2.3529,-2.3542,-2.3545,-2.3554,-2.3579,-2.3594,-2.3615,-2.3622,-2.3625,-2.3652,-2.3649,-2.3645,-2.3635,-2.3656,-2.3664,-2.3668,-2.3622,-2.3622,-2.3622,-2.3621,0,0,-2.345,-2.3479,-2.3485,-2.3495,-2.3517,-2.3533,-2.3555,-2.3576,-2.3586,-2.3603,-2.362,-2.3647,-2.3643,-2.3655,-2.3659,-2.3672,-2.3693,-2.3667,-2.3667,-2.367,-2.3722,-2.3723,-2.3727,-2.3693,-2.3693,-2.3694,-2.372,0,-2.3479,-2.3518,-2.3526,-2.3559,-2.3578,-2.358,-2.3598,-2.3613,-2.3621,-2.3637,-2.3646,-2.3665,-2.3659,-2.3666,-2.3679,-2.3688,-2.3703,-2.3686,-2.3707,-2.3707,-2.3701,-2.3732,-2.3734,-2.3757,-2.3723,-2.3724,-2.3724,0,-2.3518,-2.3536,-2.3571,-2.3589,-2.3597,-2.3614,-2.3633,-2.3649,-2.3665,-2.367,-2.3683,-2.3685,-2.3705,-2.3696,-2.3723,-2.3711,-2.372,-2.3725,-2.3726,-2.3728,-2.3716,-2.3732,-2.3765,-2.3768,-2.373,-2.3729,-2.3729,0,-2.3534,-2.3567,-2.3592,-2.3601,-2.3624,-2.3635,-2.3644,-2.366,-2.3671,-2.3688,-2.3695,-2.3713,-2.3723,-2.3736,-2.3743,-2.3735,-2.3769,-2.376,-2.3772,-2.3772,-2.3778,-2.3777,-2.3811,-2.3786,-2.3786,-2.3786,-2.3786,0,-2.3564,-2.3585,-2.36,-2.3615,-2.3638,-2.3646,-2.3668,-2.3678,-2.3691,-2.3707,-2.371,-2.3724,-2.3733,-2.3748,-2.3754,-2.3774,-2.3779,-2.3782,-2.3783,-2.3781,-2.3781,-2.3786,-2.3784,-2.3787,-2.3787,-2.3786,-2.3786,0,-2.3587,-2.3598,-2.3624,-2.3643,-2.3649,-2.3664,-2.368,-2.3694,-2.3702,-2.3722,-2.3727,-2.3739,-2.3757,-2.3765,-2.3788,-2.3791,-2.3814,-2.3815,-2.3809,-2.3809,-2.382,-2.3818,-2.3858,-2.3863,-2.3835,-2.3836,-2.3836,0,-2.3605,-2.3621,-2.3641,-2.3653,-2.3663,-2.3681,-2.3693,-2.3701,-2.3713,-2.3732,-2.3743,-2.3761,-2.3776,-2.3805,-2.3815,-2.3831,-2.3831,-2.3844,-2.3834,-2.3831,-2.383,-2.3828,-2.3829,-2.3845,-2.3846,-2.3846,-2.3846,0,-2.3635,-2.3639,-2.3657,-2.3676,-2.369,-2.3705,-2.372,-2.3728,-2.3739,-2.3752,-2.3771,-2.3782,-2.3805,-2.3822,-2.384,-2.3848,-2.3848,-2.3849,-2.3853,-2.385,-2.3846,-2.3847,-2.3813,-2.3848,-2.3848,-2.3848,-2.3848,-2.3848,-2.3655,-2.3668,-2.3685,-2.3704,-2.3716,-2.3729,-2.3743,-2.3753,-2.3769,-2.3788,-2.3792,-2.3812,-2.3826,-2.3849,-2.3858,-2.3872,-2.3869,-2.3874,-2.3875,-2.3876,-2.3876,-2.3845,-2.3875,-2.3875,-2.3875,-2.3875,-2.3875,0,-2.3684,-2.3694,-2.3712,-2.3732,-2.3747,-2.3747,-2.3763,-2.3774,-2.3792,-2.3805,-2.382,-2.3841,-2.3858,-2.3869,-2.3885,-2.3895,-2.3895,-2.3899,-2.3897,-2.3899,-2.3879,-2.3874,-2.3898,-2.3898,-2.3898,-2.3898,-2.3898,-2.3898,-2.37,-2.3723,-2.3729,-2.3758,-2.3768,-2.3788,-2.3797,-2.3808,-2.3819,-2.3842,-2.3857,-2.3864,-2.3876,-2.3894,-2.3908,-2.3911,-2.3916,-2.392,-2.3922,-2.3903,-2.3901,-2.3898,-2.3893,-2.3921,-2.3921,-2.3941,-2.3941,-2.3941]}]]